www.pogodaiklimat.ru

Погода и климат >> Архив погоды >> Южная Африка >> Вьебум


ПОГОДА во Вьебуме

  • Прогноз погоды во Вьебуме
  • Монитор погоды во Вьебуме

АРХИВ ПОГОДЫ во Вьебуме

Время (UTC), дата Ветер
(напр.,м/с)
 
Видим.   Явления Облачность Т
(С)
Тd
(С)
f
(%)
Тe
(С)
Тes
(С)
Комфортность P
(гПа)
Po
(гПа)
Тmin
(С)
Tmax
(С)
R
(мм)
R24
(мм)
S
(см)
00 16.09 СЗ 1 н/о н/о +12.9 +10.8 87 +13 +13 983.3 +12.8 +21.7
03 16.09 З 2 н/о н/о +14.3 +10.9 80 +14 +14 982.6 +12.7 +21.7
06 16.09 З 2 н/о н/о +15.9 +13.0 83 +16 +16 984.2 +12.7
09 16.09 З 3 н/о н/о +20.0 +12.3 61 +22 +22 комфорт 984.5 +12.7 +20.0
12 16.09 З 3 н/о н/о +22.1 +12.2 53 +24 +24 комфорт 983.5 +12.7 +22.7
15 16.09 З 2 н/о н/о +21.0 +13.0 60 +24 +24 комфорт 983.3 +21.0 +22.7
18 16.09 штиль 0 н/о н/о +15.0 +11.2 78 +15 +15 984.5 +15.0 +22.7
21 16.09 В 1 н/о н/о +12.0 +10.0 88 +12 +12 985.7 +12.0 +22.7
00 17.09 штиль 0 н/о н/о +10.0 +8.7 92 +9 +9 984.6 +10.0 +22.7
03 17.09 штиль 0 н/о н/о +8.6 +7.6 93 +8 +8 984.2 +8.5 +22.7
06 17.09 штиль 0 н/о н/о +10.8 +10.0 95 +10 +10 984.8 +7.5
09 17.09 ЮЗ 2 н/о н/о +17.2 +15.0 87 +18 +18 984.6 +7.5 +17.2
12 17.09 Ю 2 н/о н/о +23.8 +14.0 54 +26 +26 жарко 982.8 +7.5 +24.6
15 17.09 ЮВ 2 н/о н/о +23.0 +14.1 57 +26 +26 жарко 982.0 +23.0 +24.7
18 17.09 штиль 0 н/о н/о +14.9 +12.4 85 +15 +15 984.6 +14.9 +24.7
21 17.09 штиль 0 н/о н/о +12.0 +10.5 91 +11 +11 985.3 +12.0 +24.7
00 18.09 штиль 0 н/о н/о +10.4 +9.4 94 +10 +10 984.8 +10.4 +24.7
03 18.09 штиль 0 н/о н/о +9.6 +8.6 93 +9 +9 984.3 +9.6 +24.7
06 18.09 СВ 1 н/о н/о +10.1 +9.3 95 +9 +9 984.9 +8.6
09 18.09 В 1 н/о н/о +19.4 +13.6 69 +22 +22 комфорт 985.3 +8.6 +19.4
12 18.09 В 1 н/о н/о +23.0 +14.1 57 +26 +26 жарко 984.1 +8.6 +23.4
15 18.09 В 2 н/о н/о +22.0 +12.9 56 +25 +25 комфорт 983.1 +21.9 +23.4
18 18.09 ЮЗ 1 н/о н/о +16.9 +14.3 85 +18 +18 984.5 +16.9 +23.4
21 18.09 Ю 1 н/о н/о +15.0 +13.7 92 +15 +15 983.9 +15.0 +23.4
00 19.09 ЮЗ 1 н/о н/о +14.8 +13.6 93 +15 +15 981.7 +14.5 +23.4
03 19.09 ЮЗ 2 н/о н/о +14.7 +13.2 91 +15 +15 980.4 +14.0 +23.4
06 19.09 ЮЗ 2 н/о н/о +16.4 +13.7 84 +16 +16 979.0 +14.0
09 19.09 ЮЗ 2 н/о н/о +21.8 +14.0 61 +25 +25 комфорт 977.4 +14.0 +21.9
12 19.09 З 1 н/о н/о +28.9 +14.2 41 +31 +31 жарко 974.4 +14.0 +29.1 0.2
15 19.09 Ю 3 н/о н/о +19.4 +12.9 66 +21 +21 комфорт 975.2 +19.4 +30.4
18 19.09 З 2 н/о н/о +17.5 +12.0 70 +18 +18 976.2 +17.5 +30.4
21 19.09 З 2 н/о н/о +15.6 +12.2 80 +15 +15 976.1 +15.6 +30.4

 

Местоположение метеостанции Вьебум (Южная Африка): широта 34.13 долгота 19.02 высота над уровнем моря 305 м.

В архиве по умолчанию представлена погода во Вьебуме за последнюю неделю. Архивные данные за месяц целиком и за предыдущие месяцы, начиная с января 2011 года, Вы можете получить, выбрав интересующий диапазон дат из раскрывающегося списка и нажав кнопку "Ввод!".


*Определитесь, кто Вы:
робот инопланетянин человек

Внимание! Время в таблицах - всемирное. Для получения местного времени необходимо прибавить поправку, которая равна 2 ч.

Смотрите также архив погоды в соседних городах и на ближайших метеорологических станциях:

Погода в Эль-Мардже (Ливия) (249 км)
Погода в Бенгази (Ливия) (254 км)
Погода в Мефони (Греция) (386 км)
Погода в Сирте (Ливия) (398 км)
Погода в Мисурате (Ливия) (415 км)
Погода в Каламате (Греция) (425 км)
Погода на Китире (Греция) (435 км)
Погода в Коццо Спадаро (Италия) (452 км)
Погода на Мальте (Мальта) (456 км)
Погода в Кефалонии (Греция) (463 км)

Пояснения к столбцам:

Ветер - указаны скорость ветра в м/с - средняя за 10 мин, порывы в срок и между сроками (в фигурных скобках) и направление, откуда дует ветер: С - северный, СВ - северо-восточный, В - восточный, ЮВ - юго-восточный, Ю - южный, ЮЗ - юго-западный, З - западный, СЗ - северо-западный.
Видимость - горизонтальная дальность видимости в метрах или километрах. При видимости от 1 до 10 км при отсутствии осадков обычно наблюдается дымка, при ухудшении видимости до 1 км и менее - туман. В сухую погоду видимость может ухудшаться дымом, пылью или мглою.
Явления - указаны атмосферные явления, наблюдавшиеся в срок или в последний час перед сроком; фигурными скобками обозначены явления, наблюдавшиеся между сроками (за 1-3 часа до срока); квадратными скобками обозначены град или гололедные отложения с указанием их диаметра в мм.
Облачность - указаны через наклонную черту общая и нижняя облачность в баллах и высота нижней границы облаков в метрах; квадратными скобками обозначены формы облаков: Ci - перистые, Cs - перисто-слоистые, Cc - перисто-кучевые, Ac - высококучевые, As - высокослоистые, Sc - слоисто-кучевые, Ns - слоисто-дождевые, Cu - кучевые, Cb - кучево-дождевые. Подробнее классификацию облаков см. в Атласе облаков (PDF).
T - Температура воздуха - температура, измеренная на высоте 2 м над землей.
Td - Температура точки росы - температура, при понижении до которой содержащийся в воздухе водяной пар достигнет насыщения.
f - Относительная влажность воздуха - влажноcть воздуха, измеренная на высоте 2 м над землей.
Te - Эффективная температура - температура, которую ощущает одетый по сезону человек в тени. Характеристика душности погоды. При расчете учитывается влияние влажности воздуха и скорости ветра на теплоощущения человека.
Tes - Эффективная температура на солнце - температура, которую ощущает человек, с поправкой на солнечный нагрев. Характеристика знойности погоды. Зависит от высоты солнца над горизонтом, облачности и скорости ветра. Ночью, в пасмурную погоду, а также при ветре 12 м/с и более поправка равна нулю.
P - Атмосферное давление - приведенное к уровню моря атмосферное давление.
Po - Атмосферное давление - измеренное на уровне метеостанции атмосферное давление.
Tmin - Минимальная температура - минимум температуры воздуха на высоте 2 м над землей.
Tmax - Максимальная температура - максимум температуры воздуха на высоте 2 м над землей.
R - Количество осадков - Количество выпавших осадков за период времени, мм. При наведении курсора мыши на число - период времени, за который выпало указанное количество осадков.
R24 - Количество осадков - Количество выпавших осадков за 24 часа, мм.
S - Снежный покров - Высота снежного покрова, см. При наведении курсора мыши на число - состояние снежного покрова и степень покрытия местности в баллах.